Location: ????
(55.5675°N, 37.6272°E)
Time: 21:37:45
(UTC+00:00)

Cosmos 2251 Rocket - Pass Details

Date: 14 April 2026
Orbit: 760 x 788 km, 74.0° (Epoch: 16 May)

Event Time Altitude Azimuth Distance (km) Brightness Sun altitude
Rises 21:11:08 0° 331° (NNW) 3,268 7.8 -24.7°
Reaches altitude 10° 21:13:31 10° 330° (NNW) 2,341 6.9 -24.7°
Maximum altitude 21:18:51 79° 245° (WSW) 802 3.4 -24.7°
Enters shadow 21:19:20 72° 189° (S) 828 3.4 -24.7°
